Вернуться в каталог

COSMOS 1691 DEB

АктивенPO
NORAD 17168·DEBRIS·🇷🇺 Russia

Запущен Oct 9, 1985 с Plesetsk Cosmodrome

Loading…

Ближайшие Пролёты (ближайшие 24 часа)

TLE

СвежийSource: Space-Track

Эпоха: Sep 14, 2026, 18:29 UTC

1 17168U 85094S   26257.77037123  .00000835  00000-0  21972-2 0  9990
2 17168  82.5496 100.7957 0050319 256.3507 225.8153 13.14768501915191

Отслеживайте COSMOS 1691 DEB в реальном времени с AllMySat

Download on the App Store